Location: Santa Barbara
(34.4500°N, 119.7700°W)
Time: 01:37:58
(UTC-07:00)

Cosmos 1892 Rocket - Visible Passes

Search period start: 21 April 2014 00:00
Search period end: 01 May 2014 00:00
Orbit: 609 x 635 km, 82.5° (Epoch: 20 April)

Date Brightness Start Highest point End Pass type
(mag) Time Alt. Az. Time Alt. Az. Time Alt. Az.
21 Apr 6.5 23:05:06 12° N 23:05:06 12° N 23:05:22 10° N visible
22 Apr 6.5 23:22:49 14° N 23:22:49 14° N 23:23:26 10° N visible
23 Apr 6.6 23:40:31 12° NNW 23:40:31 12° NNW 23:41:03 10° NNW visible
24 Apr 5.9 22:21:00 17° NNE 22:21:00 17° NNE 22:22:04 10° NNE visible
25 Apr 5.6 22:38:38 24° N 22:38:38 24° N 22:40:25 10° N visible
26 Apr 5.7 22:56:13 25° NNW 22:56:13 25° NNW 22:58:23 10° N visible
27 Apr 5.3 21:36:35 20° NE 21:36:35 20° NE 21:38:29 10° NNE visible
27 Apr 6.1 23:13:45 18° NW 23:13:45 18° NW 23:15:52 10° NNW visible
28 Apr 4.4 21:54:04 40° NE 21:54:04 40° NE 21:57:09 10° NNE visible
28 Apr 6.6 23:31:13 10° WNW 23:31:13 10° WNW 23:31:14 10° WNW visible
29 Apr 4.0 22:11:28 62° NW 22:11:28 62° NW 22:15:25 10° N visible
30 Apr 5.2 20:51:39 17° E 20:51:39 17° E 20:54:27 10° NE visible
30 Apr 5.0 22:28:48 33° W 22:29:13 33° W 22:33:18 10° NNW visible
